[[{"header":{"parameterUnit":"m.s-1","parameterCategory":1,"la1":30.2991,"la2":30.254,"lo1":-89.0895,"lo2":-89.0444,"dy":0.0017,"dx":0.0017,"nx":28,"ny":28,"refTime":"2023-06-21T21:00:00:Z","depth":0,"parameterNumber":2,"parameterNumberName":"U-component_of_WINDS"},"data":[0,0,0,0,0,0,0,0,0,0,0,0,0,0,0,0,0,0,0,0,0,0,0,0,0,0,0,0,0,0,0,0,0,0,0,0,0,0,0,0,0,0,0,0,0,0,0,0,0,0,0,0,0,0,0,0,0,0,3.178,3.1782,0,3.1911,3.1912,3.1914,3.1839,3.1836,3.1832,3.1828,3.1969,3.1976,3.1983,0,0,0,0,0,0,0,0,0,0,0,0,0,3.1473,3.1479,3.178,3.1782,3.1783,3.1911,3.1912,3.1914,3.184,3.1835,3.1831,3.1827,3.1966,3.1975,3.1983,0,0,0,0,0,0,0,0,0,0,0,0,0,3.1605,3.1481,3.178,3.1762,3.1761,3.191,3.1913,3.1915,3.1841,3.1835,3.183,3.1825,3.1963,3.1974,3.1984,3.2161,0,0,3.2017,3.2022,0,0,0,0,0,0,0,0,3.1598,3.1617,3.1763,3.1763,3.1763,3.1853,3.1855,3.1998,3.1842,3.1811,3.1828,3.1822,3.1935,3.1948,3.1985,3.2168,3.2174,3.2018,3.2025,3.2029,3.2032,0,0,0,0,0,0,0,3.1589,3.1611,3.1832,3.1765,3.1765,3.1749,3.1762,3.1882,3.1903,3.1813,3.1808,3.1824,3.1934,3.1974,3.1987,3.2176,3.2018,3.2027,3.2034,3.2038,3.2512,3.2517,0,0,0,0,0,0,3.158,3.1604,3.1828,3.1836,3.1665,3.1759,3.1773,3.183,3.1901,3.1906,3.1829,3.182,3.1959,3.1975,3.1992,3.2204,3.2029,3.2039,3.2045,3.2506,3.2513,3.252,0,0,0,0,0,0,3.1574,3.1601,3.1823,3.1718,3.1745,3.177,3.1834,3.1835,3.1875,3.1913,3.1916,3.1866,3.1955,3.1977,3.2119,3.2208,3.2044,3.2054,3.2498,3.2508,3.2516,3.2629,0,0,0,0,0,0,3.1565,3.1599,3.1665,3.172,3.1751,3.1946,3.184,3.1842,3.1893,3.1883,3.1948,3.1954,3.1952,3.2104,3.213,3.222,3.2062,3.2491,3.2503,3.2513,3.2618,3.2641,3.2661,0,0,0,0,0,3.1555,3.1693,3.1668,3.1696,3.1834,3.1951,3.1969,3.1963,3.1901,3.1968,3.1992,3.1952,3.2194,3.2119,3.2148,3.2242,3.2485,3.2499,3.2513,3.2608,3.2637,3.2661,0,0,0,0,0,0,3.1649,3.1699,3.1673,3.1833,3.1888,3.1939,3.2023,3.1993,3.2069,3.2057,3.2048,3.2063,3.2212,3.2241,3.2157,3.2418,3.233,3.235,3.2393,3.242,3.2442,3.2432,3.2071,0,0,0,0,0,3.1688,3.1777,3.1817,3.1955,3.1983,3.1999,3.205,3.204,3.2098,3.2122,3.2156,3.2215,3.2305,3.2364,3.2448,3.2622,3.2636,3.2701,3.2723,3.274,3.2758,3.2854,3.2883,3.2565,3.2565,3.2565,0,0,3.177,3.1809,3.1866,3.1974,3.2016,3.2111,3.2019,3.2123,3.2194,3.2138,3.2274,3.2302,3.2368,3.2527,3.2599,3.2556,3.2849,3.2758,3.2772,3.278,3.2871,3.2901,3.2928,3.2574,3.2573,3.2571,0,0,3.1968,3.2006,3.2124,3.2168,3.2231,3.2241,3.2269,3.2325,3.234,3.2476,3.2436,3.2522,3.2676,3.2724,3.277,3.2987,3.2953,3.3015,3.3129,3.3222,3.3247,3.3269,3.3348,3.3376,3.3033,3.3033,3.3033,0,3.2063,3.2202,3.219,3.2297,3.2347,3.2298,3.242,3.2463,3.2552,3.2589,3.2539,3.2731,3.2772,3.2943,3.2996,3.3033,3.3067,3.3008,3.3244,3.3266,3.3287,3.3362,3.3392,3.304,3.3039,3.3039,3.3038,0,3.2316,3.2413,3.2502,3.2587,3.2646,3.276,3.2768,3.283,3.2815,3.2831,3.2971,3.3019,3.3112,3.3152,3.3139,3.3321,3.3293,3.3244,3.3156,3.3325,3.3395,3.3424,3.305,3.3048,3.3046,3.3044,0,0,3.2577,3.2654,3.2687,3.2725,3.2792,3.2868,3.2981,3.307,3.3124,3.3188,3.3283,3.3415,3.337,3.3421,3.3414,3.3495,3.3666,3.3437,3.3438,3.3479,3.3871,3.3908,3.3941,3.3644,3.3649,3.3654,3.3866,0,3.278,3.2974,3.2967,3.315,3.324,3.3196,3.3294,3.3348,3.3365,3.3447,3.3467,3.356,3.3494,3.3525,3.3603,3.3629,3.3745,3.3613,3.3735,3.3739,3.372,3.3978,3.4017,3.4215,3.3893,3.3898,3.3902,0,3.3043,3.3113,3.3304,3.3358,3.3396,3.3484,3.3566,3.3643,3.3704,3.3711,3.3768,3.3748,3.3865,3.3773,3.3934,3.3845,3.3894,3.3915,3.3922,3.3934,3.3831,3.3998,3.4278,3.4308,3.3945,3.3941,3.3938,0,3.3216,3.3358,3.3491,3.3525,3.3591,3.3654,3.3685,3.3739,3.3794,3.3866,3.3902,3.3988,3.4036,3.4104,3.4108,3.404,3.4272,3.418,3.4283,3.4283,3.4334,3.4331,3.4627,3.4365,3.4365,3.4364,3.4363,0,3.3444,3.3563,3.3569,3.3651,3.3784,3.3775,3.3908,3.3933,3.3981,3.4069,3.4037,3.412,3.412,3.4206,3.4211,3.4345,3.4366,3.4377,3.4377,3.438,3.4379,3.4413,3.44,3.4372,3.437,3.4369,3.4367,0,3.366,3.3669,3.3811,3.3861,3.3877,3.3972,3.4016,3.4095,3.411,3.4221,3.4247,3.4271,3.437,3.4381,3.4497,3.45,3.4662,3.4647,3.4642,3.4639,3.4742,3.4733,3.5071,3.5116,3.4824,3.4826,3.4829,0,3.3805,3.3895,3.3955,3.401,3.4044,3.4134,3.4188,3.4184,3.4243,3.4319,3.4389,3.4485,3.4561,3.4723,3.4752,3.4841,3.4828,3.4941,3.4842,3.4843,3.4832,3.4826,3.4836,3.4961,3.4964,3.4966,3.4968,0,3.4063,3.4063,3.4142,3.4223,3.4289,3.4354,3.4414,3.4462,3.4466,3.4534,3.4634,3.4693,3.4811,3.4908,3.4995,3.5029,3.5001,3.4999,3.5028,3.5033,3.5026,3.5032,3.4695,3.4992,3.4989,3.4988,3.4986,3.4986,3.4249,3.4327,3.4381,3.4471,3.4515,3.4573,3.4649,3.4673,3.4755,3.4849,3.4842,3.4954,3.5013,3.5127,3.5168,3.5256,3.5219,3.526,3.5271,3.5282,3.5292,3.5011,3.5272,3.5272,3.5271,3.527,3.527,0,3.4505,3.4537,3.462,3.4705,3.4776,3.474,3.4805,3.4868,3.4965,3.5022,3.5097,3.5213,3.5306,3.5342,3.5434,3.5498,3.5488,3.5523,3.5518,3.5527,3.532,3.5286,3.553,3.553,3.5529,3.5529,3.5529,3.5529,3.4647,3.4778,3.4784,3.4937,3.4969,3.5076,3.5117,3.517,3.5215,3.5345,3.5421,3.5444,3.5493,3.5588,3.5673,3.5681,3.5717,3.5758,3.5761,3.5568,3.5541,3.5516,3.5485,3.5766,3.5766,3.5961,3.5963,3.5964]},{"header":{"parameterUnit":"m.s-1","parameterCategory":1,"la1":30.2991,"la2":30.254,"lo1":-89.0895,"lo2":-89.0444,"dy":0.0017,"dx":0.0017,"nx":28,"ny":28,"refTime":"2023-06-21T21:00:00:Z","depth":0,"parameterNumber":3,"parameterNumberName":"V-component_of_WINDS"},"data":[0,0,0,0,0,0,0,0,0,0,0,0,0,0,0,0,0,0,0,0,0,0,0,0,0,0,0,0,0,0,0,0,0,0,0,0,0,0,0,0,0,0,0,0,0,0,0,0,0,0,0,0,0,0,0,0,0,0,-0.5692,-0.5692,0,-0.5679,-0.5679,-0.5679,-0.5685,-0.5685,-0.5686,-0.5686,-0.5669,-0.5668,-0.5668,0,0,0,0,0,0,0,0,0,0,0,0,0,-0.572,-0.5719,-0.5692,-0.5692,-0.5692,-0.5679,-0.5679,-0.5679,-0.5685,-0.5685,-0.5686,-0.5686,-0.5669,-0.5669,-0.5668,0,0,0,0,0,0,0,0,0,0,0,0,0,-0.5707,-0.5719,-0.5692,-0.5694,-0.5694,-0.5679,-0.5679,-0.5679,-0.5685,-0.5685,-0.5686,-0.5686,-0.567,-0.5669,-0.5668,-0.565,0,0,-0.5664,-0.5664,0,0,0,0,0,0,0,0,-0.5708,-0.5706,-0.5694,-0.5693,-0.5693,-0.5684,-0.5683,-0.5669,-0.5685,-0.5688,-0.5686,-0.5687,-0.5674,-0.5672,-0.5668,-0.5649,-0.5649,-0.5664,-0.5663,-0.5663,-0.5662,0,0,0,0,0,0,0,-0.5709,-0.5707,-0.5687,-0.5693,-0.5693,-0.5694,-0.5693,-0.568,-0.5678,-0.5688,-0.5688,-0.5687,-0.5674,-0.567,-0.5668,-0.5648,-0.5664,-0.5663,-0.5662,-0.5662,-0.5614,-0.5613,0,0,0,0,0,0,-0.571,-0.5708,-0.5687,-0.5687,-0.5702,-0.5693,-0.5692,-0.5687,-0.5678,-0.5677,-0.5686,-0.5687,-0.5671,-0.5669,-0.5668,-0.5646,-0.5663,-0.5662,-0.5661,-0.5614,-0.5614,-0.5613,0,0,0,0,0,0,-0.5711,-0.5708,-0.5688,-0.5697,-0.5695,-0.5692,-0.5686,-0.5686,-0.5682,-0.5677,-0.5676,-0.5683,-0.5672,-0.5669,-0.5655,-0.5646,-0.5661,-0.566,-0.5615,-0.5614,-0.5613,-0.5604,0,0,0,0,0,0,-0.5712,-0.5708,-0.5703,-0.5697,-0.5694,-0.5676,-0.5686,-0.5685,-0.568,-0.5681,-0.5674,-0.5673,-0.5672,-0.5656,-0.5653,-0.5645,-0.5659,-0.5616,-0.5615,-0.5614,-0.5605,-0.5603,-0.5601,0,0,0,0,0,-0.5712,-0.57,-0.5702,-0.57,-0.5687,-0.5676,-0.5674,-0.5674,-0.568,-0.5673,-0.567,-0.5673,-0.5647,-0.5655,-0.5652,-0.5642,-0.5616,-0.5615,-0.5614,-0.5606,-0.5604,-0.5601,0,0,0,0,0,0,-0.5703,-0.5699,-0.5702,-0.5687,-0.5682,-0.5677,-0.5669,-0.5671,-0.5663,-0.5664,-0.5664,-0.5662,-0.5647,-0.5643,-0.5651,-0.5625,-0.5633,-0.5631,-0.5628,-0.5625,-0.5623,-0.5625,-0.5658,0,0,0,0,0,-0.57,-0.5692,-0.5688,-0.5676,-0.5673,-0.5671,-0.5667,-0.5667,-0.5661,-0.5659,-0.5654,-0.5647,-0.5638,-0.5631,-0.5622,-0.5605,-0.5603,-0.5597,-0.5595,-0.5593,-0.5591,-0.5581,-0.5579,-0.5609,-0.5609,-0.5609,0,0,-0.5692,-0.5689,-0.5684,-0.5674,-0.567,-0.5661,-0.5669,-0.566,-0.5653,-0.5657,-0.5643,-0.5639,-0.5632,-0.5616,-0.5608,-0.5612,-0.5583,-0.5592,-0.559,-0.5589,-0.558,-0.5577,-0.5574,-0.5608,-0.5608,-0.5608,0,0,-0.5674,-0.5671,-0.566,-0.5656,-0.565,-0.5649,-0.5646,-0.5641,-0.5639,-0.5625,-0.5628,-0.5619,-0.5603,-0.5597,-0.5592,-0.5571,-0.5573,-0.5568,-0.5558,-0.5548,-0.5546,-0.5544,-0.5536,-0.5533,-0.5566,-0.5566,-0.5566,0,-0.5665,-0.5653,-0.5654,-0.5644,-0.5639,-0.5644,-0.5632,-0.5628,-0.5619,-0.5615,-0.5619,-0.5599,-0.5594,-0.5576,-0.5571,-0.5567,-0.5563,-0.5569,-0.5546,-0.5544,-0.5542,-0.5535,-0.5532,-0.5566,-0.5566,-0.5566,-0.5566,0,-0.5642,-0.5633,-0.5625,-0.5617,-0.5611,-0.56,-0.5599,-0.5593,-0.5594,-0.5592,-0.5578,-0.5572,-0.5562,-0.5558,-0.5558,-0.554,-0.5543,-0.5547,-0.5554,-0.5539,-0.5531,-0.5529,-0.5565,-0.5565,-0.5565,-0.5566,0,0,-0.5617,-0.5611,-0.5607,-0.5604,-0.5598,-0.559,-0.5579,-0.557,-0.5565,-0.5558,-0.5548,-0.5535,-0.5538,-0.5532,-0.5532,-0.5524,-0.5507,-0.5529,-0.5529,-0.5525,-0.5486,-0.5483,-0.548,-0.5509,-0.5508,-0.5508,-0.5487,0,-0.5598,-0.558,-0.5581,-0.5564,-0.5555,-0.5559,-0.555,-0.5544,-0.5542,-0.5533,-0.5531,-0.5521,-0.5527,-0.5523,-0.5515,-0.5511,-0.5499,-0.5513,-0.5499,-0.5498,-0.5501,-0.5476,-0.5473,-0.5454,-0.5484,-0.5484,-0.5483,0,-0.5574,-0.5567,-0.555,-0.5544,-0.5541,-0.5532,-0.5524,-0.5516,-0.551,-0.5508,-0.5502,-0.5503,-0.5491,-0.5499,-0.5482,-0.5491,-0.5485,-0.5483,-0.5482,-0.548,-0.549,-0.5474,-0.5447,-0.5444,-0.5479,-0.5479,-0.548,0,-0.5558,-0.5544,-0.5532,-0.5529,-0.5522,-0.5516,-0.5513,-0.5507,-0.5501,-0.5494,-0.549,-0.548,-0.5475,-0.5467,-0.5465,-0.5472,-0.5448,-0.5456,-0.5446,-0.5446,-0.5441,-0.5441,-0.5413,-0.5437,-0.5437,-0.5437,-0.5437,0,-0.5536,-0.5525,-0.5525,-0.5517,-0.5504,-0.5505,-0.5492,-0.5489,-0.5484,-0.5475,-0.5477,-0.5469,-0.5467,-0.5457,-0.5456,-0.5441,-0.5439,-0.5437,-0.5437,-0.5437,-0.5437,-0.5433,-0.5434,-0.5437,-0.5437,-0.5437,-0.5437,0,-0.5516,-0.5515,-0.5502,-0.5497,-0.5496,-0.5487,-0.5482,-0.5474,-0.5472,-0.5461,-0.5458,-0.5455,-0.5444,-0.5441,-0.5428,-0.5427,-0.541,-0.5411,-0.5412,-0.5412,-0.5402,-0.5403,-0.537,-0.5365,-0.5393,-0.5393,-0.5393,0,-0.5503,-0.5494,-0.5489,-0.5483,-0.548,-0.5471,-0.5466,-0.5466,-0.546,-0.5452,-0.5444,-0.5434,-0.5426,-0.5408,-0.5404,-0.5393,-0.5394,-0.5383,-0.5392,-0.5393,-0.5393,-0.5394,-0.5393,-0.5381,-0.5381,-0.5381,-0.538,0,-0.5478,-0.5478,-0.5471,-0.5463,-0.5457,-0.5451,-0.5444,-0.544,-0.5439,-0.5432,-0.5421,-0.5415,-0.5402,-0.5391,-0.5381,-0.5376,-0.5378,-0.5378,-0.5375,-0.5375,-0.5376,-0.5375,-0.5407,-0.5378,-0.5379,-0.5379,-0.5379,-0.5379,-0.5461,-0.5454,-0.5449,-0.544,-0.5436,-0.543,-0.5422,-0.542,-0.5411,-0.5401,-0.5401,-0.539,-0.5382,-0.5369,-0.5364,-0.5354,-0.5357,-0.5353,-0.5352,-0.5351,-0.535,-0.5378,-0.5352,-0.5352,-0.5352,-0.5352,-0.5352,0,-0.5437,-0.5434,-0.5426,-0.5418,-0.5411,-0.5414,-0.5407,-0.5401,-0.5391,-0.5385,-0.5377,-0.5364,-0.5354,-0.5349,-0.5338,-0.5331,-0.5332,-0.5328,-0.5329,-0.5328,-0.5348,-0.5351,-0.5328,-0.5328,-0.5328,-0.5328,-0.5328,-0.5328,-0.5424,-0.5411,-0.5411,-0.5396,-0.5393,-0.5382,-0.5378,-0.5372,-0.5367,-0.5354,-0.5345,-0.5342,-0.5336,-0.5325,-0.5315,-0.5314,-0.531,-0.5306,-0.5305,-0.5324,-0.5326,-0.5329,-0.5332,-0.5305,-0.5305,-0.5286,-0.5286,-0.5286]}]]